Location: Unspecified
(40.7945°N, 0.0000°E)
Time: 20:24:02
(UTC+00:00)

Courier 1B - Pass Details

Date: 22 January 2021
Orbit: 962 x 1209 km, 28.3° (Epoch: 05 March)

Event Time Altitude Azimuth Distance (km) Brightness Sun altitude
Rises 23:46:56 0° 227° (SW) 3,704 - -68.0°
Reaches altitude 10° 23:50:20 10° 211° (SSW) 2,725 - -68.2°
Maximum altitude 23:54:59 21° 166° (SSE) 2,038 - -68.3°
Drops below altitude 10° 23:59:34 10° 120° (ESE) 2,686 - -68.5°
Sets 00:02:53 0° 104° (ESE) 3,635 - -68.6°
